Retour au catalogue

STARLINK-3642

ActifCommunicationsVLEO
NORAD 51989·PAYLOAD·🇺🇸 United States

Lancé Mar 9, 2022 depuis Cape Canaveral Space Force Station

Loading…

Prochains Passages (prochaines 24 heures)

TLE

FraisSource: CelesTrak SupGP

Époque: Sep 15, 2026, 01:50 UTC

1 51989C 22025AK  26258.07687500 -.00015329  00000+0 -45260-3 0  2588
2 51989  53.1572 253.0063 0001364  79.8654 129.4227 15.34418581    17

Suivez STARLINK-3642 en temps réel avec AllMySat

Download on the App Store